SCP
0 0 0 0 0 0 0 0 0 0 0 0 0 0 0 0 0 0 0 0 0 0 0 0 0 0 0 0 0 1 1 1 1 0 0 0 0 0 0 0 0 0 0
0 0 0 0 0 0 0 0 0 0 0 0 0 0 0 0 0 0 0 0 0 0 0 0 0 0 0 0 0 0 1 1 1 0 0 0 0 0 0 0 0 0 0
0 0 0 0 0 0 0 0 0 0 0 0 0 0 0 0 0 0 0 0 0 0 0 0 0 0 0 0 0 0 1 1 0 0 0 0 0 0 0 0 0 0 0
0 0 0 0 0 0 0 0 0 0 0 0 0 0 0 0 0 0 0 0 0 0 0 0 0 0 0 0 0 0 0 1 0 0 0 0 0 0 0 0 0 0 0
0 0 0 0 0 0 0 0 0 0 0 0 0 0 0 0 0 0 0 0 0 0 0 0 0 0 0 0 0 0 1 1 0 0 0 0 0 0 0 0 0 0 0
0 0 0 0 0 0 0 0 0 0 0 0 0 0 0 0 0 0 0 0 0 0 0 0 0 0 0 0 0 0 0 0 0 0 0 0 0 0 0 0 0 0 0
0 0 0 0 0 0 0 0 0 0 0 0 0 0 0 0 0 0 0 0 0 0 0 0 0 0 -0 -0 0 0 0 0 0 0 0 0 0 0 0 0 0 0 0
0 0 0 0 0 0 0 0 0 0 0 0 0 0 0 0 0 0 0 0 -0 -0 0 0 0 0 -0 -0 0 0 0 0 0 0 0 0 0 0 0 0 0 0 0
0 0 0 0 0 0 0 0 0 0 0 0 0 0 0 0 0 0 0 0 -0 -0 -0 -0 -0 -0 -0 -0 0 1 0 0 0 0 0 0 0 0 0 0 0 0 0
0 0 0 0 0 0 0 0 0 0 0 0 0 0 0 0 0 0 0 -0 -0 -0 0 -0 -0 -0 -0 0 0 0 0 0 0 0 0 0 0 0 0 0 0 0 0
0 0 0 0 0 0 0 0 0 0 0 0 0 0 -0 0 0 0 -0 0 0 0 0 -0 0 0 0 0 0 0 0 0 0 0 0 0 0 0 0 0 0 0 0
0 0 0 0 0 0 0 0 0 0 0 0 0 0 -0 0 -0 -0 0 -0 -0 0 0 0 0 0 0 0 0 0 0 0 0 0 0 0 0 0 0 0 0 0 0
0 0 0 0 0 0 0 0 0 0 0 0 0 -0 0 0 0 -0 0 -0 0 0 0 0 0 0 0 0 0 0 0 0 0 0 0 0 0 0 0 0 0 0 0
0 0 0 0 0 0 0 0 0 0 0 0 -0 0 0 -0 0 0 -0 -0 -0 0 0 0 0 0 0 0 0 0 0 0 0 0 0 0 0 0 0 0 0 0 0
0 0 0 0 0 0 0 0 0 0 0 0 0 0 -0 0 0 -0 0 0 0 0 0 0 0 0 0 0 0 0 0 0 0 0 0 0 0 0 0 0 0 0 0
0 0 0 0 0 0 0 0 0 0 0 0 0 -0 0 0 -0 -0 -0 0 0 0 0 0 0 0 0 0 0 0 0 0 0 0 0 0 0 0 0 0 0 0 0
0 0 0 0 0 0 0 -0 0 0 -0 0 -0 -0 -0 0 0 -0 -0 0 0 0 0 0 0 0 0 0 0 0 0 0 0 0 0 0 0 0 0 0 0 0 0
0 0 0 0 0 0 0 -0 0 0 -0 0 -0 -0 -0 -0 -0 -0 -0 0 0 0 0 0 0 0 0 0 0 0 0 0 0 0 0 0 0 0 0 0 0 0 0
0 -0 0 0 0 0 0 0 0 0 0 0 -0 -0 -0 -0 -0 -0 -0 0 0 0 0 0 0 0 0 0 0 0 0 0 0 0 0 0 0 0 0 0 0 0 0
0 -0 -0 0 0 0 0 -0 0 -0 -0 0 0 -0 -0 0 -0 -0 0 0 0 0 0 0 0 0 0 0 0 0 0 0 0 0 0 0 0 0 0 0 0 0 0
0 0 -0 -0 -0 0 0 0 -0 0 -0 -0 0 0 -0 0 0 -0 -0 0 0 0 0 0 0 0 0 0 0 0 0 0 0 0 0 0 0 0 0 0 0 0 0
0 0 0 -0 0 -0 0 -0 0 0 -0 -0 -0 0 0 0 0 -0 -0 -0 0 0 0 0 0 0 0 0 0 0 0 0 0 0 0 0 0 0 0 0 0 0 0
-0 0 -0 0 0 0 0 -0 -0 0 -0 -0 -0 0 0 0 0 0 0 0 0 0 0 0 0 0 0 0 0 0 0 0 0 0 0 0 0 0 0 0 0 0 0
-0 -0 -0 -0 -0 0 0 -0 -0 0 0 -0 -0 -0 0 0 0 0 0 0 0 0 0 0 0 0 0 0 0 0 0 0 0 0 0 0 0 0 0 0 0 0 0
-0 -0 -0 -0 -0 -0 0 0 0 0 0 0 -0 -0 -0 0 0 0 0 0 0 0 0 0 0 0 0 0 0 0 0 0 0 0 0 0 0 0 0 0 0 0 0
0 -0 -0 -0 -0 -0 -0 -0 0 0 0 0 0 0 -0 -0 0 0 0 0 0 0 0 0 0 0 0 0 0 0 0 0 0 0 0 0 0 0 0 0 0 0 0
Wind_Speed_500mb
56 60 67 73 76 81 76 72 74 76 73 72 74 74 73 71 68 69 67 64 70 71 71 73 81 72 92 90 94 112 106 87 76 75 77 72 73 81 73 59 54 39 29
56 65 72 76 78 77 73 69 71 77 76 77 77 77 76 74 72 73 70 65 67 72 70 72 82 81 95 97 101 117 113 109 90 82 75 76 68 85 76 69 60 45 35
60 69 73 73 72 70 70 73 73 76 80 82 82 83 80 76 72 73 76 73 71 75 76 79 87 89 97 112 106 115 116 115 102 85 80 78 74 87 87 75 65 51 41
65 70 70 69 64 64 69 71 76 76 81 84 84 86 83 74 70 74 81 79 76 79 79 84 91 99 105 123 111 114 121 114 112 90 89 78 77 91 90 86 73 59 54
66 65 68 63 61 66 69 75 78 78 81 84 86 88 90 89 85 76 75 78 79 80 83 81 94 105 105 121 114 120 117 114 112 107 94 83 89 98 100 92 77 70 55
63 63 62 61 64 68 70 76 78 83 80 88 84 88 91 85 81 74 81 79 79 81 94 97 82 92 102 119 127 124 121 115 122 110 106 94 91 94 100 94 88 79 69
58 59 58 61 64 66 68 73 76 81 78 84 83 88 90 85 79 77 73 67 65 81 82 78 85 89 105 110 123 134 129 129 128 114 110 105 95 97 92 99 93 82 78
58 60 59 60 64 66 67 68 70 66 70 81 79 78 81 75 61 54 50 52 61 75 81 83 101 112 99 120 120 137 130 127 119 100 107 106 88 88 79 82 89 92 70
57 62 59 57 63 64 66 66 66 69 73 75 67 69 74 74 62 51 51 55 61 73 78 76 83 104 93 106 128 135 131 122 108 92 85 93 94 84 89 91 94 93 75
56 61 57 54 59 63 65 67 68 68 74 77 71 68 66 78 73 52 44 53 57 70 82 80 86 110 128 134 141 131 130 121 109 102 94 99 99 84 60 61 72 91 87
55 57 54 55 56 59 65 66 68 71 75 80 82 85 81 90 75 46 32 50 61 73 78 69 116 108 124 116 113 118 117 108 100 89 91 96 90 81 85 80 80 71 91
51 53 54 57 57 60 63 66 68 69 74 80 83 86 90 103 56 27 23 39 62 74 54 67 93 95 118 103 101 92 93 91 104 99 90 89 87 88 90 83 80 73 76
50 47 55 58 60 61 65 66 68 65 66 75 78 87 97 102 39 23 13 38 57 36 52 98 93 86 102 101 86 97 94 99 110 103 101 92 88 84 87 85 79 71 72
48 48 53 59 63 64 65 66 64 58 59 67 71 80 85 71 37 27 37 63 38 42 30 38 46 69 78 86 82 75 79 91 102 103 96 94 89 89 87 85 84 76 71
47 50 54 58 61 64 66 67 62 48 45 50 51 62 69 65 36 27 32 23 25 27 37 50 45 61 80 79 86 84 88 78 95 101 100 94 89 87 90 87 86 84 80
47 50 52 54 59 60 67 73 59 49 39 28 42 45 56 39 30 28 25 14 11 18 30 42 51 69 89 98 98 97 92 88 94 101 99 91 78 89 91 86 87 85 84
45 48 49 49 55 58 62 67 76 59 39 28 46 45 44 44 35 24 38 22 4 25 31 29 35 65 98 107 107 105 98 100 98 98 97 89 78 95 91 94 92 89 86
42 43 44 47 49 53 55 58 62 67 68 54 48 59 56 45 38 45 34 28 14 6 33 44 49 62 79 102 103 98 95 97 99 96 96 92 88 94 94 92 94 95 90
37 41 43 44 49 50 52 56 59 61 61 61 57 53 53 50 41 35 39 29 13 2 13 37 51 54 59 76 74 79 81 80 72 78 86 86 89 91 90 90 96 91 92
34 38 42 46 51 54 56 58 60 60 58 60 60 63 60 57 58 51 46 43 38 18 7 27 46 58 71 67 72 63 63 67 67 71 68 64 70 77 85 89 90 90 90
39 40 41 45 49 52 55 58 57 58 57 52 54 50 46 58 56 53 49 46 47 40 24 20 44 60 70 68 70 73 79 61 62 57 55 64 65 69 71 74 74 86 88
41 42 43 42 44 47 50 56 58 56 57 55 50 50 46 46 48 51 51 45 44 41 39 43 44 56 84 82 73 66 54 40 28 31 36 41 52 59 67 70 72 81 82
45 46 44 42 38 41 45 50 59 57 57 56 55 53 52 51 48 48 48 46 41 37 23 28 34 31 27 37 45 42 40 45 17 26 37 45 53 57 58 60 64 74 81
45 48 51 47 42 46 46 48 55 59 56 57 58 56 55 53 48 43 42 43 43 43 34 26 12 13 30 22 9 18 34 33 25 28 32 39 47 48 48 50 54 66 75
39 40 48 55 62 53 41 42 48 59 60 60 59 59 59 53 50 46 41 40 39 38 41 41 41 41 39 33 35 32 29 28 26 27 30 28 29 33 38 42 47 57 64
31 36 41 46 51 55 56 39 35 48 60 62 65 65 65 66 60 53 48 43 41 39 36 34 35 33 34 35 36 33 33 32 27 23 22 25 27 31 34 36 41 46 53
Wind_Direction_500mb
300 303 307 311 313 316 312 311 308 304 303 301 299 298 297 294 290 286 280 267 254 251 252 249 255 253 240 245 230 221 213 212 206 208 223 223 218 205 208 206 213 209 210
301 307 309 311 314 315 313 310 308 305 304 303 301 297 296 296 292 285 283 268 255 251 252 250 249 252 243 240 236 225 216 213 210 209 213 214 215 205 204 203 205 203 209
305 308 311 315 317 317 315 314 310 307 305 304 302 301 299 296 292 286 281 273 257 250 250 251 252 250 244 234 231 224 215 214 211 207 208 208 209 201 199 200 199 195 200
305 311 317 318 317 318 318 314 312 311 309 308 308 305 302 299 293 288 281 273 258 253 255 260 253 249 240 232 228 220 211 209 211 206 214 202 200 198 198 195 190 193 194
310 315 319 316 317 317 316 316 314 314 314 312 311 308 302 297 295 288 282 274 261 253 255 263 253 240 238 231 226 215 203 203 207 207 202 196 193 193 193 194 197 193 190
314 317 316 316 317 319 319 321 318 316 315 314 310 311 303 296 289 283 278 273 259 258 258 256 247 242 238 229 223 215 207 200 203 202 202 202 200 198 194 195 195 188 184
315 317 313 316 320 321 320 321 321 323 319 318 312 309 308 298 289 279 279 268 261 270 265 249 262 242 239 223 224 216 207 208 214 210 208 210 204 202 198 197 199 202 197
318 321 318 319 320 318 318 320 319 323 328 325 317 310 308 302 298 290 276 269 276 280 253 279 243 237 227 224 223 205 203 209 212 212 214 215 214 207 208 205 199 198 197
323 326 323 320 320 318 317 315 318 319 326 323 322 319 312 303 308 288 282 285 291 278 279 282 224 219 223 219 195 192 202 206 210 213 216 216 209 211 201 199 195 192 183
326 329 326 322 318 317 316 315 314 317 319 321 323 323 321 320 316 299 275 279 282 289 278 268 241 218 219 194 185 187 195 202 200 202 205 210 211 216 211 214 206 196 191
328 333 329 324 321 319 315 314 315 316 317 314 319 324 333 338 320 303 279 285 278 289 277 244 216 191 190 194 193 196 198 197 196 199 203 203 200 201 197 206 206 208 198
331 334 331 326 328 323 322 321 321 323 320 317 320 326 334 337 320 309 271 277 281 284 246 213 191 191 178 184 191 194 198 195 194 196 196 192 193 195 198 199 201 206 209
335 341 334 331 329 328 329 328 328 329 327 322 329 330 334 334 334 345 304 284 288 207 218 176 184 181 193 189 196 202 205 197 192 191 193 191 185 188 193 192 196 202 201
342 338 334 332 330 335 332 334 333 335 331 329 332 335 336 335 337 350 348 299 238 189 191 178 176 172 175 187 194 200 207 201 195 194 190 186 184 187 191 192 192 194 191
338 332 331 331 332 335 332 336 336 338 338 327 335 339 342 340 348 358 346 311 193 181 173 180 188 184 184 189 193 200 201 202 197 191 188 184 182 188 191 191 192 188 187
339 334 337 336 338 338 340 339 345 346 353 330 350 351 354 1 354 347 342 344 197 207 180 182 194 195 201 192 191 186 192 197 199 197 194 189 188 196 191 190 193 189 187
348 346 346 347 346 348 350 350 347 347 7 354 357 12 22 37 32 32 10 24 31 165 154 134 170 176 174 184 184 187 186 193 195 199 194 189 199 194 191 190 189 187 187
352 354 357 354 356 357 358 359 2 0 357 357 5 21 27 39 55 41 28 11 1 84 153 146 132 141 149 159 164 170 179 183 185 188 188 186 193 194 189 188 189 187 187
359 3 2 5 6 7 8 8 9 9 4 6 7 21 30 41 50 44 57 59 44 172 173 159 160 151 151 153 159 170 174 174 173 182 187 187 191 190 189 189 191 189 186
21 15 6 10 12 15 17 16 13 14 14 9 19 19 25 42 47 55 58 59 64 68 179 183 170 168 163 164 165 175 173 172 178 182 182 186 190 193 194 191 192 190 189
24 18 13 15 16 18 21 22 20 17 20 18 22 29 29 47 46 46 56 56 61 65 94 153 168 167 163 155 160 162 168 169 166 169 173 182 189 192 196 197 196 189 189
24 24 21 17 18 20 24 26 23 24 26 29 28 35 45 51 52 49 47 57 64 71 80 97 116 140 142 140 137 132 130 132 147 166 182 195 201 199 199 198 194 194 195
28 28 23 17 18 19 28 32 32 29 30 36 40 41 48 57 57 56 55 49 64 79 92 67 79 93 83 88 113 135 147 155 181 182 193 193 197 199 201 198 199 196 194
32 31 41 40 32 23 25 30 34 37 37 36 43 47 49 54 63 67 66 63 61 69 85 91 131 117 122 125 116 152 174 166 168 179 184 190 193 196 197 198 198 195 197
35 41 44 46 42 42 37 35 37 38 41 43 45 49 54 54 59 67 70 75 78 73 74 80 88 94 104 121 121 122 121 128 145 159 166 171 184 190 192 195 196 192 195
38 43 45 44 40 37 39 54 59 50 47 49 51 54 59 61 59 61 65 68 75 82 86 85 85 88 102 112 117 124 137 142 141 144 150 161 167 172 180 185 186 186 191
Wind_Speed_850mb
56 60 67 73 76 81 76 72 74 76 73 72 74 74 73 71 68 69 67 64 70 71 71 73 81 72 92 90 94 112 106 87 76 75 77 72 73 81 73 59 54 39 29
56 65 72 76 78 77 73 69 71 77 76 77 77 77 76 74 72 73 70 65 67 72 70 72 82 81 95 97 101 117 113 109 90 82 75 76 68 85 76 69 60 45 35
60 69 73 73 72 70 70 73 73 76 80 82 82 83 80 76 72 73 76 73 71 75 76 79 87 89 97 112 106 115 116 115 102 85 80 78 74 87 87 75 65 51 41
65 70 70 69 64 64 69 71 76 76 81 84 84 86 83 74 70 74 81 79 76 79 79 84 91 99 105 123 111 114 121 114 112 90 89 78 77 91 90 86 73 59 54
66 65 68 63 61 66 69 75 78 78 81 84 86 88 90 89 85 76 75 78 79 80 83 81 94 105 105 121 114 120 117 114 112 107 94 83 89 98 100 92 77 70 55
63 63 62 61 64 68 70 76 78 83 80 88 84 88 91 85 81 74 81 79 79 81 94 97 82 92 102 119 127 124 121 115 122 110 106 94 91 94 100 94 88 79 69
58 59 58 61 64 66 68 73 76 81 78 84 83 88 90 85 79 77 73 67 65 81 82 78 85 89 105 110 123 134 129 129 128 114 110 105 95 97 92 99 93 82 78
58 60 59 60 64 66 67 68 70 66 70 81 79 78 81 75 61 54 50 52 61 75 81 83 101 112 99 120 120 137 130 127 119 100 107 106 88 88 79 82 89 92 70
57 62 59 57 63 64 66 66 66 69 73 75 67 69 74 74 62 51 51 55 61 73 78 76 83 104 93 106 128 135 131 122 108 92 85 93 94 84 89 91 94 93 75
56 61 57 54 59 63 65 67 68 68 74 77 71 68 66 78 73 52 44 53 57 70 82 80 86 110 128 134 141 131 130 121 109 102 94 99 99 84 60 61 72 91 87
55 57 54 55 56 59 65 66 68 71 75 80 82 85 81 90 75 46 32 50 61 73 78 69 116 108 124 116 113 118 117 108 100 89 91 96 90 81 85 80 80 71 91
51 53 54 57 57 60 63 66 68 69 74 80 83 86 90 103 56 27 23 39 62 74 54 67 93 95 118 103 101 92 93 91 104 99 90 89 87 88 90 83 80 73 76
50 47 55 58 60 61 65 66 68 65 66 75 78 87 97 102 39 23 13 38 57 36 52 98 93 86 102 101 86 97 94 99 110 103 101 92 88 84 87 85 79 71 72
48 48 53 59 63 64 65 66 64 58 59 67 71 80 85 71 37 27 37 63 38 42 30 38 46 69 78 86 82 75 79 91 102 103 96 94 89 89 87 85 84 76 71
47 50 54 58 61 64 66 67 62 48 45 50 51 62 69 65 36 27 32 23 25 27 37 50 45 61 80 79 86 84 88 78 95 101 100 94 89 87 90 87 86 84 80
47 50 52 54 59 60 67 73 59 49 39 28 42 45 56 39 30 28 25 14 11 18 30 42 51 69 89 98 98 97 92 88 94 101 99 91 78 89 91 86 87 85 84
45 48 49 49 55 58 62 67 76 59 39 28 46 45 44 44 35 24 38 22 4 25 31 29 35 65 98 107 107 105 98 100 98 98 97 89 78 95 91 94 92 89 86
42 43 44 47 49 53 55 58 62 67 68 54 48 59 56 45 38 45 34 28 14 6 33 44 49 62 79 102 103 98 95 97 99 96 96 92 88 94 94 92 94 95 90
37 41 43 44 49 50 52 56 59 61 61 61 57 53 53 50 41 35 39 29 13 2 13 37 51 54 59 76 74 79 81 80 72 78 86 86 89 91 90 90 96 91 92
34 38 42 46 51 54 56 58 60 60 58 60 60 63 60 57 58 51 46 43 38 18 7 27 46 58 71 67 72 63 63 67 67 71 68 64 70 77 85 89 90 90 90
39 40 41 45 49 52 55 58 57 58 57 52 54 50 46 58 56 53 49 46 47 40 24 20 44 60 70 68 70 73 79 61 62 57 55 64 65 69 71 74 74 86 88
41 42 43 42 44 47 50 56 58 56 57 55 50 50 46 46 48 51 51 45 44 41 39 43 44 56 84 82 73 66 54 40 28 31 36 41 52 59 67 70 72 81 82
45 46 44 42 38 41 45 50 59 57 57 56 55 53 52 51 48 48 48 46 41 37 23 28 34 31 27 37 45 42 40 45 17 26 37 45 53 57 58 60 64 74 81
45 48 51 47 42 46 46 48 55 59 56 57 58 56 55 53 48 43 42 43 43 43 34 26 12 13 30 22 9 18 34 33 25 28 32 39 47 48 48 50 54 66 75
39 40 48 55 62 53 41 42 48 59 60 60 59 59 59 53 50 46 41 40 39 38 41 41 41 41 39 33 35 32 29 28 26 27 30 28 29 33 38 42 47 57 64
31 36 41 46 51 55 56 39 35 48 60 62 65 65 65 66 60 53 48 43 41 39 36 34 35 33 34 35 36 33 33 32 27 23 22 25 27 31 34 36 41 46 53
Wind_Direction_850mb
300 303 307 311 313 316 312 311 308 304 303 301 299 298 297 294 290 286 280 267 254 251 252 249 255 253 240 245 230 221 213 212 206 208 223 223 218 205 208 206 213 209 210
301 307 309 311 314 315 313 310 308 305 304 303 301 297 296 296 292 285 283 268 255 251 252 250 249 252 243 240 236 225 216 213 210 209 213 214 215 205 204 203 205 203 209
305 308 311 315 317 317 315 314 310 307 305 304 302 301 299 296 292 286 281 273 257 250 250 251 252 250 244 234 231 224 215 214 211 207 208 208 209 201 199 200 199 195 200
305 311 317 318 317 318 318 314 312 311 309 308 308 305 302 299 293 288 281 273 258 253 255 260 253 249 240 232 228 220 211 209 211 206 214 202 200 198 198 195 190 193 194
310 315 319 316 317 317 316 316 314 314 314 312 311 308 302 297 295 288 282 274 261 253 255 263 253 240 238 231 226 215 203 203 207 207 202 196 193 193 193 194 197 193 190
314 317 316 316 317 319 319 321 318 316 315 314 310 311 303 296 289 283 278 273 259 258 258 256 247 242 238 229 223 215 207 200 203 202 202 202 200 198 194 195 195 188 184
315 317 313 316 320 321 320 321 321 323 319 318 312 309 308 298 289 279 279 268 261 270 265 249 262 242 239 223 224 216 207 208 214 210 208 210 204 202 198 197 199 202 197
318 321 318 319 320 318 318 320 319 323 328 325 317 310 308 302 298 290 276 269 276 280 253 279 243 237 227 224 223 205 203 209 212 212 214 215 214 207 208 205 199 198 197
323 326 323 320 320 318 317 315 318 319 326 323 322 319 312 303 308 288 282 285 291 278 279 282 224 219 223 219 195 192 202 206 210 213 216 216 209 211 201 199 195 192 183
326 329 326 322 318 317 316 315 314 317 319 321 323 323 321 320 316 299 275 279 282 289 278 268 241 218 219 194 185 187 195 202 200 202 205 210 211 216 211 214 206 196 191
328 333 329 324 321 319 315 314 315 316 317 314 319 324 333 338 320 303 279 285 278 289 277 244 216 191 190 194 193 196 198 197 196 199 203 203 200 201 197 206 206 208 198
331 334 331 326 328 323 322 321 321 323 320 317 320 326 334 337 320 309 271 277 281 284 246 213 191 191 178 184 191 194 198 195 194 196 196 192 193 195 198 199 201 206 209
335 341 334 331 329 328 329 328 328 329 327 322 329 330 334 334 334 345 304 284 288 207 218 176 184 181 193 189 196 202 205 197 192 191 193 191 185 188 193 192 196 202 201
342 338 334 332 330 335 332 334 333 335 331 329 332 335 336 335 337 350 348 299 238 189 191 178 176 172 175 187 194 200 207 201 195 194 190 186 184 187 191 192 192 194 191
338 332 331 331 332 335 332 336 336 338 338 327 335 339 342 340 348 358 346 311 193 181 173 180 188 184 184 189 193 200 201 202 197 191 188 184 182 188 191 191 192 188 187
339 334 337 336 338 338 340 339 345 346 353 330 350 351 354 1 354 347 342 344 197 207 180 182 194 195 201 192 191 186 192 197 199 197 194 189 188 196 191 190 193 189 187
348 346 346 347 346 348 350 350 347 347 7 354 357 12 22 37 32 32 10 24 31 165 154 134 170 176 174 184 184 187 186 193 195 199 194 189 199 194 191 190 189 187 187
352 354 357 354 356 357 358 359 2 0 357 357 5 21 27 39 55 41 28 11 1 84 153 146 132 141 149 159 164 170 179 183 185 188 188 186 193 194 189 188 189 187 187
359 3 2 5 6 7 8 8 9 9 4 6 7 21 30 41 50 44 57 59 44 172 173 159 160 151 151 153 159 170 174 174 173 182 187 187 191 190 189 189 191 189 186
21 15 6 10 12 15 17 16 13 14 14 9 19 19 25 42 47 55 58 59 64 68 179 183 170 168 163 164 165 175 173 172 178 182 182 186 190 193 194 191 192 190 189
24 18 13 15 16 18 21 22 20 17 20 18 22 29 29 47 46 46 56 56 61 65 94 153 168 167 163 155 160 162 168 169 166 169 173 182 189 192 196 197 196 189 189
24 24 21 17 18 20 24 26 23 24 26 29 28 35 45 51 52 49 47 57 64 71 80 97 116 140 142 140 137 132 130 132 147 166 182 195 201 199 199 198 194 194 195
28 28 23 17 18 19 28 32 32 29 30 36 40 41 48 57 57 56 55 49 64 79 92 67 79 93 83 88 113 135 147 155 181 182 193 193 197 199 201 198 199 196 194
32 31 41 40 32 23 25 30 34 37 37 36 43 47 49 54 63 67 66 63 61 69 85 91 131 117 122 125 116 152 174 166 168 179 184 190 193 196 197 198 198 195 197
35 41 44 46 42 42 37 35 37 38 41 43 45 49 54 54 59 67 70 75 78 73 74 80 88 94 104 121 121 122 121 128 145 159 166 171 184 190 192 195 196 192 195
38 43 45 44 40 37 39 54 59 50 47 49 51 54 59 61 59 61 65 68 75 82 86 85 85 88 102 112 117 124 137 142 141 144 150 161 167 172 180 185 186 186 191